Showing default

GESAT GEN 1, 62612

Orbit data source: Space-Track

GESAT GEN 1, 62612 is a French payload satellite in SSO that was launched on Tue, 14 Jan 2025 UTC via an FALCON 9 launch vehicle from the Air Force Western Test Range (AFWTR). Payload-class satellites include a variety of spacecraft equipped with specific instruments for various scientific and technological missions. These include communications satellites like Starlink; space stations such as the ISS; scientific satellites like the Hubble; Earth observation satellites from companies like Planet Labs, Umbra, and HawkEye 360; GPS; miniature CubeSats for education and research; and military/defense satellites.

Loading next visibility...
Identifier
62612, 2025-009D
Orbit
SSO
Country
Flag of FRFR
Related business
Manufacturer
NanoAvionics
Mission
Operational Commercial Earth Obs Sci
Bus & Motor
CUBESAT 16U MP42, Unknown motor
Mass
30 kg wet, 30 kg dry
Launch date (UTC)
2025-01-14 (1 year ago)
Launch vehicle
FALCON 9
Launch site
Air Force Western Test Range (AFWTR)
Object type
Payload
Rocket body
Debris
Shape & HBR
Box + 2 Pan, 0.3 m
Radar Cross Section
0.146 m², Medium (>0.1 m² and < 1m²)

Expand to show TLE details & history
Last TLE update: 16 hours ago

TLE from 16 hours ago
0 GESAT GEN 1
1 62612U 25009D   26034.50833063  .00010634  00000-0  41463-3 0  9991
2 62612  97.4122 117.5168 0001743  80.0644 280.0791 15.26124877 58519
Epoch: 2026-02-03T12:11Z
TLE epoch observation values (Epoch: 2026-02-03T12:11:59.766Z)
Latitude
-0.00003°
Longitude
160.82952°
Altitude
490.299 km
Speed
7.62 km/s
True Right ascension
07h 50m 04s
True Declination
0° 00' 00"
Sunlit
Object was in full shadow at epoch
Visualization orbit readout
Latitude
Unknown
Longitude
Unknown
Altitude
Unknown
Speed
Unknown
Apparent Right ascension
Unknown
Apparent Declination
Unknown
Sunlit
N/A
Visualization observer readout
Local Sidereal Time
05:39:49
Azimuth
Unknown
Elevation
Unknown
Doppler factor
Unknown
Orbital elements
Apogee altitude
485.564 km
Perigee altitude
483.172 km
Semi-major axis
6,862.505 km
Eccentricity
0.00017
Inclination
97.4122°
RAAN
117.5168°
Arg. of periapsis
80.0644°
True anomaly
280.05943°
Mean anomaly
280.0791°
Eccentric anomaly
280.06927°
Mean motion
3.81785 °/min
Orbital period
94.29 mins
BSTAR
0.00041463
Loading maneuver chart data...
Computing Atmospheric mass density...
Loading historical data...
Loading historical data...
Loading historical data...
Loading historical data...
Loading historical data...
Loading historical data...
Loading historical data...

Documentation

Showing up to 5 results
|